sat.trackr.live / text

‹ back to catalog

UNKNOWN

NORAD 81343

UNKNOWN UNKNOWN UNKNOWN

§ Identity

Operator
Country
Launch date
Launch site
Launch vehicle
Mass (kg)
RCS (m²)

External: N2YO · Heavens-Above

§ Orbital elements

Epoch: 2026-09-13T10:45:51.111936Z

Period
95.55 min
Inclination
85.8800°
Eccentricity
0.0003539
Mean motion
15.07098721 rev/d
Perigee alt
542.6 km
Apogee alt
547.5 km
Semi-major
6,923.2 km
B*
3.5164e-4
RAAN
52.0434°
Arg perigee
35.3476°
Mean anomaly
324.7993°
Rev number
49,565

§ Raw data

UNKNOWN1 81343U          26256.44850824  .00005309  00000+0  35164-3 0  99932 81343  85.8800  52.0434 0003539  35.3476 324.7993 15.07098721495652

JSON: /api/v1/satellites/81343 · /tle

For live sub-satellite position, see the globe view (requires WebGL).

§ Visibility from observer

Set your observer location to see the next 7 days of passes ≥ 10°. The values pass through the URL so the page stays shareable.

No JS? Fill the form by hand. The geolocation button needs JavaScript.